This demonstration page uses our WeatherBlox Daily Observations layout. Learn more.

Left ArrowRight Arrow

Hourly Observations for April 11, 2021

Temp ( °F °C ) Dew Point ( °F °C ) Humidity (%) Winds ( mph kmh ) Pressure ( in mb ) Visibility ( mi km ) Precip ( " mm )
12:15 am 00:15 Cloudy with Light Rain 54 12 54 12 100 100 ESE 7 11 29.7 1006 10 16.0934 0.01 0.254
12:35 am 00:35 Cloudy with Light Rain 54 12 54 12 100 100 ESE 6 9 29.69 1006 7 11.26538 0.01 0.254
12:55 am 00:55 Cloudy with Drizzle 52 11 52 11 100 100 ESE 5 7 29.68 1005 10 16.0934 0.01 0.254
1:15 am 01:15 Cloudy with Light Rain 52 11 52 11 100 100 E 5 7 29.67 1005 10 16.0934 0 0
1:35 am 01:35 Cloudy with Light Rain 52 11 52 11 100 100 ESE 6 9 29.65 1004 10 16.0934 0 0
1:55 am 01:55 Cloudy with Light Rain 52 11 52 11 100 100 ESE 6 9 29.64 1004 7 11.26538 0 0
2:15 am 02:15 Cloudy with Light Rain 52 11 52 11 100 100 ESE 3 6 29.62 1003 10 16.0934 0 0
2:35 am 02:35 Cloudy with Light Rain 52 11 52 11 100 100 SE 6 9 29.61 1003 10 16.0934 0.01 0.254
2:55 am 02:55 Cloudy with Light Rain 52 11 52 11 100 100 E 5 7 29.59 1002 10 16.0934 0.02 0.508
3:15 am 03:15 Cloudy with Light Rain 52 11 52 11 100 100 E 6 9 29.58 1002 7 11.26538 0 0
3:35 am 03:35 Cloudy with Light Rain 52 11 52 11 100 100 E 5 7 29.57 1002 7 11.26538 0 0
3:55 am 03:55 Cloudy with Light Rain 52 11 52 11 100 100 E 6 9 29.57 1002 7 11.26538 0 0
4:15 am 04:15 Cloudy with Light Rain 52 11 52 11 100 100 E 5 7 29.55 1001 5 8.0467 0 0
4:35 am 04:35 Cloudy with Light Rain 52 11 52 11 100 100 ESE 6 9 29.52 1000 5 8.0467 0.01 0.254
4:55 am 04:55 Cloudy with Light Rain 52 11 52 11 100 100 SE 8 13 29.52 1000 7 11.26538 0.03 0.762
5:15 am 05:15 Cloudy with Light Rain 52 11 52 11 100 100 SE 6 9 29.51 999 10 16.0934 0 0
5:35 am 05:35 Cloudy 52 11 52 11 100 100 SE 8 13 29.51 999 10 16.0934 0 0
5:55 am 05:55 Cloudy with Light Rain 52 11 52 11 100 100 ESE 9 15 29.5 999 7 11.26538 0 0
6:15 am 06:15 Cloudy with Mist and Fog 52 11 52 11 100 100 ESE 5 7 29.49 999 5 8.0467 0 0
6:35 am 06:35 Cloudy 52 11 52 11 100 100 SE 6 9 29.49 999 7 11.26538 0 0
6:55 am 06:55 Cloudy with Drizzle 52 11 52 11 100 100 SE 7 11 29.48 998 5 8.0467 0 0
7:15 am 07:15 Cloudy 52 11 52 11 100 100 SSW 5 7 29.5 999 10 16.0934 0.01 0.254
7:35 am 07:35 Cloudy 52 11 52 11 100 100 W 13 20 29.51 999 10 16.0934 0.01 0.254
7:55 am 07:55 Cloudy 52 11 52 11 100 100 WNW 9 15 29.52 1000 10 16.0934 0.01 0.254
8:15 am 08:15 Cloudy 52 11 52 11 100 100 W 15 24 29.53 1000 10 16.0934 0 0
8:35 am 08:35 Cloudy 52 11 52 11 100 100 W 10 17 29.54 1000 10 16.0934 0 0
8:55 am 08:55 Cloudy 54 12 54 12 100 100 W 6 9 29.54 1000 10 16.0934 0 0
9:15 am 09:15 Mostly Cloudy 54 12 54 12 100 100 W 7 11 29.53 1000 10 16.0934 0 0
9:35 am 09:35 Partly Cloudy 55 13 54 12 94 94 W 6 9 29.54 1000 10 16.0934 0 0
9:55 am 09:55 Partly Cloudy 57 14 54 12 88 88 W 6 9 29.54 1000 10 16.0934 0 0
10:15 am 10:15 Partly Cloudy 59 15 54 12 82 82 Calm 29.54 1000 10 16.0934 0 0
10:35 am 10:35 Partly Cloudy 61 16 54 12 77 77 W 10 17 29.54 1000 10 16.0934 0 0
10:55 am 10:55 Partly Cloudy 63 17 54 12 73 73 WNW 10 17 29.53 1000 10 16.0934 0 0
11:15 am 11:15 Partly Cloudy 64 18 54 12 68 68 WNW 12 19 29.52 1000 10 16.0934 0 0
11:35 am 11:35 Partly Cloudy 64 18 52 11 64 64 W 7 11 29.52 1000 10 16.0934 0 0
11:55 am 11:55 Sunny 66 19 52 11 60 60 WNW 9 15 29.51 999 10 16.0934 0 0
12:15 pm 12:15 Partly Cloudy 66 19 52 11 60 60 NW 9 15 29.51 999 10 16.0934 0 0
12:35 pm 12:35 Partly Cloudy 68 20 52 11 56 56 Calm 29.51 999 10 16.0934 0 0
12:55 pm 12:55 Partly Cloudy 70 21 52 11 53 53 Calm 29.51 999 10 16.0934 0 0
1:15 pm 13:15 Mostly Cloudy 70 21 50 10 50 50 SSW 6 9 29.49 999 10 16.0934 0 0
1:35 pm 13:35 Cloudy 70 21 52 11 53 53 Calm 29.49 999 10 16.0934 0 0
1:55 pm 13:55 Partly Cloudy 72 22 54 12 53 53 SSW 6 9 29.48 998 10 16.0934 0 0
2:15 pm 14:15 Mostly Cloudy 72 22 50 10 47 47 S 3 6 29.48 998 10 16.0934 0 0
2:35 pm 14:35 Cloudy 72 22 52 11 50 50 S 7 11 29.48 998 10 16.0934 0 0
2:55 pm 14:55 Cloudy 72 22 52 11 50 50 SSE 3 6 29.46 998 10 16.0934 0 0
3:15 pm 15:15 Partly Cloudy 73 23 50 10 44 44 W 5 7 29.43 997 10 16.0934 0 0
3:35 pm 15:35 Sunny 73 23 50 10 44 44 SE 5 7 29.43 997 10 16.0934 0 0
3:55 pm 15:55 Sunny 75 24 48 9 39 39 S 10 17 29.43 996 10 16.0934 0 0
4:15 pm 16:15 Mostly Cloudy 75 24 46 8 36 36 SSE 7 11 29.43 996 10 16.0934 0 0
4:55 pm 16:55 Cloudy 77 25 46 8 34 34 SSE 12 19 29.42 996 10 16.0934 0 0
5:15 pm 17:15 Partly Cloudy 73 23 46 8 38 38 S 13 20 29.43 997 10 16.0934 0 0
5:35 pm 17:35 Mostly Cloudy 73 23 50 10 44 44 SSW 7 11 29.43 997 10 16.0934 0 0
5:55 pm 17:55 Cloudy 73 23 50 10 44 44 S 5 7 29.43 997 10 16.0934 0 0
6:15 pm 18:15 Cloudy with Heavy Rain 72 22 54 12 53 53 WSW 10 17 29.44 997 7 11.26538 0 0
6:35 pm 18:35 Cloudy with Light Thunderstorms 63 17 55 13 77 77 NNW 13 20 29.47 998 4 6.43736 0.08 2.032
6:55 pm 18:55 Cloudy 64 18 55 13 73 73 Calm 29.44 997 10 16.0934 0.08 2.032
7:15 pm 19:15 Cloudy with Light Rain 64 18 55 13 73 73 Calm 29.45 997 10 16.0934 0 0
7:35 pm 19:35 Cloudy with Nearby Thunderstorms 64 18 55 13 73 73 Calm 29.45 997 10 16.0934 0 0
7:55 pm 19:55 Mostly Cloudy 63 17 57 14 83 83 Calm 29.46 997 10 16.0934 0 0
8:15 pm 20:15 Partly Cloudy with Thunderstorms 59 15 59 15 100 100 Calm 29.47 998 10 16.0934 0 0
8:35 pm 20:35 Cloudy with Nearby Thunderstorms 59 15 57 14 94 94 NW 6 9 29.5 999 10 16.0934 0 0
8:55 pm 20:55 Cloudy 61 16 55 13 83 83 NNW 8 13 29.52 1000 10 16.0934 0 0
9:15 pm 21:15 Cloudy with Nearby Thunderstorms 63 17 54 12 73 73 NNW 12 19 29.53 1000 10 16.0934 0 0
9:35 pm 21:35 Cloudy 63 17 52 11 68 68 N 9 15 29.53 1000 10 16.0934 0 0
9:55 pm 21:55 Cloudy 63 17 52 11 68 68 N 10 17 29.54 1000 10 16.0934 0 0
10:15 pm 22:15 Cloudy 63 17 52 11 68 68 N 8 13 29.54 1000 10 16.0934 0 0
10:35 pm 22:35 Mostly Cloudy with Thunderstorms 61 16 52 11 72 72 N 7 11 29.55 1001 10 16.0934 0 0
10:55 pm 22:55 Partly Cloudy 61 16 52 11 72 72 N 6 9 29.56 1001 10 16.0934 0 0
11:15 pm 23:15 Partly Cloudy 61 16 52 11 72 72 N 5 7 29.57 1001 10 16.0934 0 0
11:35 pm 23:35 Mostly Cloudy 61 16 52 11 72 72 N 3 6 29.58 1002 10 16.0934 0 0
11:55 pm 23:55 Cloudy 61 16 50 10 68 68 NNE 5 7 29.59 1002 10 16.0934 0 0

Powered by AerisWeather